Location: Fredericton
(45.9636°N, 66.6431°W)
Time: 13:20:39
(UTC-04:00)

X-37B - Visible Passes

Search period start: 02 December 2020 00:00
Search period end: 12 December 2020 00:00
Orbit: 384 x 390 km, 45.0° (Epoch: 26 November)

Date Brightness Start Highest point End Pass type
(mag) Time Alt. Az. Time Alt. Az. Time Alt. Az.
02 Dec 0.7 18:39:36 10° W 18:42:35 72° SW 18:42:35 72° SW visible
03 Dec 0.8 17:41:04 10° WSW 17:44:13 68° S 17:46:39 16° E visible
03 Dec 3.1 19:17:37 10° W 19:18:55 22° W 19:18:55 22° W visible
04 Dec 0.6 18:19:03 10° W 18:22:13 75° S 18:23:00 47° ESE visible
05 Dec 0.7 17:20:30 10° W 17:23:40 76° S 17:26:51 10° E visible
05 Dec 1.9 18:57:05 10° W 18:59:26 39° WSW 18:59:26 39° WSW visible
06 Dec 0.8 17:58:30 10° W 18:01:40 65° S 18:03:38 21° ESE visible
06 Dec 3.9 19:35:22 10° W 19:35:55 13° WSW 19:35:55 13° WSW visible
07 Dec 1.9 18:36:37 10° W 18:39:34 35° SSW 18:40:15 31° S visible
08 Dec 1.4 17:38:00 10° W 17:41:05 50° SSW 17:44:10 10° ESE visible
08 Dec 3.4 19:15:18 10° WSW 19:17:01 15° SW 19:17:01 15° SW visible
09 Dec 2.8 18:16:15 10° W 18:18:53 24° SSW 18:21:30 10° SSE visible
10 Dec 2.2 17:17:31 10° W 17:20:27 35° SSW 17:23:23 10° SE visible
11 Dec 3.6 17:56:13 10° WSW 17:58:09 15° SSW 18:00:04 10° S visible
